Regional Weather Roundup
Issued by NWS Cleveland, OH

Home | Current Version | Previous Version | Graphics & Text | Print | Product List | Glossary On
Versions: 1 2 3 4 5 6 7 8 9 10 11 12 13 14 15 16 17 18 19 20 21 22 23 24 25 26 27 28 29 30 31 32 33 34 35 36 37 38 39 40 41 42 43 44 45 46 47 48 49 50
000
ASUS41 KCLE 221400
RWRCLE
OHIO REGIONAL WEATHER ROUNDUP
NATIONAL WEATHER SERVICE WILMINGTON, OH
1000 AM EDT SUN APR 22 2018

NOTE: "FAIR" INDICATES FEW OR NO CLOUDS BELOW 12,000 FEET WITH NO
SIGNIFICANT WEATHER AND/OR OBSTRUCTIONS TO VISIBILITY.

OHZ001>008-015>018-024>027-034-035-043-044-221500-
   NORTHWEST OHIO

CITY           SKY/WX    TMP DP  RH WIND       PRES   REMARKS
DEFIANCE       FAIR      47  29  49 E9        30.40R
FINDLAY        FAIR      49  28  44 NE8       30.37R
TOLEDO EXPRESS FAIR      50  29  44 E10       30.40R
TOLEDO EXEC    FAIR      48  30  49 E10       30.42R
LIMA           FAIR      47  31  53 NE6       30.36S
$$

OHZ009>014-019>023-028>033-038-089-221500-
   NORTHEAST OHIO

CITY           SKY/WX    TMP DP  RH WIND       PRES   REMARKS
CLE-HOPKINS    PTSUNNY   52  29  41 NE8       30.41S
CLE-LAKEFRONT  FAIR      44  37  76 NE13      30.39S
CUY CO. ARPT   MOSUNNY   54  25  32 E14       30.40
LORAIN-ELYRIA  FAIR      50  24  36 NE15      30.38F
ASHTABULA      FAIR      51  22  31 E13       30.41F
AKRON-CANTON   PTSUNNY   52  25  35 E12       30.36S
WOOSTER        NOT AVBL
MANSFIELD      FAIR      50  27  40 E8        30.35S
YOUNGSTOWN     FAIR      52  24  33 E12       30.37F
$$

OHZ042-051>053-060>062-070>072-077>081-221500-
  SOUTHWEST OHIO

CITY           SKY/WX    TMP DP  RH WIND       PRES   REMARKS
CINC-COVINGTON PTSUNNY   53  29  39 NE9       30.29R
CINC-LUNKEN    FAIR      53  35  50 NE3       30.32R
HAMILTON       FAIR      51  32  48 E5        30.32S
DAYTON         NOT AVBL
WRIGHT-PAT AFB FAIR      49  32  51 NE9       30.32F
DAYTON GENERAL FAIR      51  31  46 NE9       30.30S
WILMINGTON     PTSUNNY   48  34  58 NE9       30.30F
$$

OHZ036-037-039>041-045>050-054>059-063>069-073>076-082>088-221500-
  CENTRAL AND SOUTHEAST OHIO

CITY           SKY/WX    TMP DP  RH WIND       PRES   REMARKS
COLUMBUS       CLOUDY    52  30  43 E5        30.33F
OSU AIRPORT    FAIR      50  31  48 E6        30.33F
BOLTON FIELD   SUNNY     50  34  53 NE5       30.34S
RICKENBACK AFB NOT AVBL
NEWARK         FAIR      51  31  46 VRB5      30.33S
MARION         FAIR      50  29  44 E6        30.35S
LANCASTER      FAIR      50  35  56 NE6       30.33S
ZANESVILLE     FAIR      52  31  44 VRB5      30.33
NEW PHILLY     FAIR      54  28  36 N7        30.35S
$$




USA.gov is the U.S. government's official web portal to all federal, state and local government web resources and services.